{"data":{"norad_id":67779,"epoch":"2026-05-25T04:00:03.998880Z","epoch_age_seconds":59970,"freshness":"FRESH","line1":"1 67779U 26030R   26145.16671295  .00013214  00000+0  86340-3 0  9996","line2":"2 67779  51.9003 212.6618 0010127 350.4542  61.8851 15.08066265  5885","mean_motion":15.08066265,"eccentricity":0.0010127,"inclination_deg":51.9003,"raan_deg":212.6618,"arg_perigee_deg":350.4542,"mean_anomaly_deg":61.8851,"bstar":0.0008634,"rev_number":588,"period_min":95.486520282317,"perigee_km":535.10126489992,"apogee_km":549.1175319553,"semimajor_km":6920.2463984276,"source":"CELESTRAK","updated_at":"2026-05-25T13:38:07.259066Z"}}